Wind_Speed
15 15 15 14 14 14 14 14 14 14 14 14 14 15 15 15 15 16 16 17 18 18 18 18 18 19 19 19 20 21 22 22 23 24 25 26 27 27
19 19 18 18 18 18 18 18 18 18 18 18 18 18 19 18 19 19 19 20 20 21 21 21 22 22 22 22 22 23 23 24 25 25 26 27 28 28
23 23 22 22 22 22 22 22 22 21 22 22 22 22 22 22 22 23 23 23 23 24 24 24 25 25 25 25 25 25 26 26 26 27 27 28 30 30
27 27 27 26 26 26 26 26 25 25 25 25 26 26 26 26 26 26 26 27 27 27 27 27 28 28 28 29 29 29 29 29 29 29 29 30 30 30
30 30 30 30 30 30 29 29 29 29 28 29 29 29 29 29 29 30 30 30 30 30 30 31 31 31 31 32 32 32 32 32 32 32 32 32 33 33
33 33 34 34 33 33 33 33 33 32 32 32 31 32 32 33 33 33 33 33 33 34 34 34 34 35 35 35 36 35 36 35 35 35 35 35 35 35
36 37 37 37 37 37 36 36 36 35 35 35 35 35 36 36 37 36 36 36 36 37 37 37 38 38 38 39 39 39 39 38 38 38 38 38 38 38
39 39 39 39 39 40 40 39 39 38 39 39 39 39 39 40 41 40 40 39 39 40 41 41 42 41 42 42 43 43 42 42 42 42 42 41 41 41
40 40 40 40 40 41 42 42 42 42 42 42 42 42 42 43 43 43 44 44 42 43 44 43 45 45 46 46 46 47 46 46 46 46 45 45 44 44
41 41 42 42 43 43 43 43 44 44 44 44 44 44 44 45 46 47 47 47 46 46 48 46 46 48 49 49 50 50 50 50 50 50 49 49 48 48
42 42 42 43 44 44 45 44 45 45 46 47 47 47 47 48 49 49 50 50 49 48 50 51 50 51 52 52 52 53 53 53 53 53 53 52 52 52
42 42 43 44 44 45 45 46 46 47 48 49 50 50 50 51 51 52 53 54 54 54 53 55 55 56 55 53 54 56 56 56 56 56 56 55 55 55
42 42 43 44 45 46 47 48 48 49 50 51 52 52 53 54 55 56 57 58 58 58 59 60 60 61 61 59 58 59 60 60 60 60 59 59 58 58
43 43 44 45 46 47 48 49 50 52 52 53 53 54 54 56 57 59 60 61 62 63 64 65 66 66 66 65 63 62 62 63 63 63 62 62 61 61
44 45 46 46 48 49 51 53 54 54 55 55 56 57 58 60 61 62 63 65 66 67 68 69 70 69 69 69 67 67 66 65 65 64 64 63 63 63
46 47 48 50 51 52 53 55 55 56 57 58 58 60 61 62 64 65 66 66 67 67 68 68 69 69 69 69 69 69 68 67 65 65 65 65 64 64
50 51 51 52 53 54 56 57 57 58 58 59 60 62 63 64 64 65 65 66 66 66 65 66 67 67 67 68 67 67 67 66 65 65 66 66 65 65
52 53 53 54 54 55 56 57 58 59 60 60 61 61 62 62 62 63 64 64 64 64 64 64 64 65 65 64 65 64 64 64 64 64 65 65 63 62
52 53 54 54 54 55 55 56 57 58 58 58 58 59 59 60 60 60 60 61 60 60 59 59 59 59 59 59 58 59 60 60 60 60 59 59 58 56
53 53 53 54 54 55 55 55 55 55 55 55 55 55 55 55 55 55 54 53 52 51 50 51 52 53 53 52 51 51 53 54 53 53 53 52 51 51
51 51 51 51 51 51 51 51 51 50 49 49 49 48 48 48 47 46 45 44 43 43 43 44 45 46 46 45 44 42 43 45 46 46 46 46 45 46
48 48 47 47 46 46 45 45 44 44 43 43 42 41 41 40 39 38 38 37 37 38 38 38 38 38 38 38 36 35 34 36 38 39 39 40 40 40
44 43 43 42 41 40 39 39 38 38 38 37 36 36 35 34 33 33 32 32 32 32 32 32 31 31 31 31 30 29 29 29 30 31 32 34 35 35
Wind_Direction
264 268 270 273 275 276 277 278 279 279 278 279 278 277 277 277 276 276 275 274 273 273 273 273 273 273 273 273 272 271 270 269 269 268 267 267 267 267
266 268 270 271 273 274 275 275 276 276 276 276 276 275 274 275 275 275 274 274 273 273 273 273 273 273 273 273 272 272 271 271 270 270 268 268 268 267
268 269 271 272 272 273 274 274 275 275 275 274 274 274 273 274 274 275 274 273 273 273 272 272 273 273 273 273 273 272 272 272 271 271 271 270 268 268
269 270 272 273 273 273 274 274 274 274 274 273 273 273 273 273 273 274 274 273 272 272 272 271 272 272 272 272 272 272 272 272 272 272 271 271 271 270
270 271 272 272 273 273 274 274 274 274 274 274 273 273 273 273 273 274 274 273 273 272 272 271 271 271 271 271 271 271 271 271 271 271 271 271 270 270
270 272 272 272 273 273 273 274 274 274 275 274 274 274 274 273 273 273 274 274 273 272 271 271 270 270 270 270 271 271 271 271 271 271 271 270 270 270
271 271 272 272 272 272 273 274 274 274 274 274 274 275 275 274 275 274 274 273 273 273 272 272 271 271 270 270 270 271 271 271 271 271 271 271 270 270
272 272 272 273 273 272 272 272 273 273 274 274 274 274 274 274 275 275 274 273 272 272 273 273 272 272 271 271 271 271 271 271 270 270 270 270 270 270
271 271 271 272 272 273 273 273 272 273 274 275 275 274 274 274 274 274 274 274 273 272 271 271 272 272 272 273 273 273 273 272 272 271 271 270 269 269
271 271 271 272 273 273 273 273 272 273 273 274 275 275 275 275 275 275 274 274 274 274 273 272 271 271 272 273 273 273 273 273 272 272 271 270 269 268
272 272 272 272 273 273 273 274 274 275 276 277 276 275 275 275 275 275 275 275 274 274 275 275 273 272 271 272 273 273 273 272 271 271 270 270 269 268
272 273 273 271 272 273 273 274 274 275 276 277 277 276 276 276 276 276 276 276 275 275 275 275 275 274 272 272 273 273 272 272 271 271 270 269 268 268
273 274 274 273 272 274 275 274 275 275 276 277 277 277 278 278 277 277 277 277 277 276 275 275 274 274 273 272 271 271 272 272 271 271 270 270 269 268
274 274 274 274 274 274 275 276 276 276 276 277 277 277 277 278 278 277 278 278 277 277 276 276 276 275 274 273 272 271 271 271 271 270 270 269 268 267
276 276 275 275 275 276 277 277 276 276 277 277 278 277 277 277 277 278 278 277 278 278 278 277 277 276 275 274 273 272 272 271 272 271 270 269 267 266
280 279 278 278 278 278 278 278 278 278 278 279 279 279 279 279 279 279 278 278 278 278 278 278 277 277 276 275 275 274 274 273 272 270 270 268 267 265
280 280 281 280 280 279 279 279 279 279 280 280 280 280 280 280 280 280 280 279 279 278 278 278 278 277 277 277 276 275 274 273 272 271 270 269 267 265
281 282 282 281 281 280 280 280 281 281 282 282 282 282 282 282 281 281 282 281 281 281 280 279 279 278 278 277 277 275 273 272 271 271 270 268 267 265
283 283 283 282 282 282 282 282 282 283 283 283 283 283 283 283 283 283 283 283 283 283 282 281 280 280 279 278 276 275 274 272 271 270 269 267 266 263
285 284 284 283 283 283 283 283 284 284 284 284 284 284 285 285 285 285 286 286 286 285 284 283 283 282 281 280 277 275 273 272 271 270 267 265 264 261
287 287 286 286 285 285 285 285 285 285 285 286 286 287 287 287 287 288 287 287 287 287 286 285 285 285 283 282 281 279 275 273 272 269 267 264 262 259
290 289 289 288 288 288 288 288 287 287 287 288 288 289 289 290 290 290 289 289 290 290 290 290 289 287 287 286 284 281 278 275 273 270 268 266 264 261
291 291 291 290 290 291 292 291 290 289 289 289 290 291 291 291 291 291 291 292 293 293 294 293 292 290 289 287 286 285 283 280 276 271 268 267 265 264
Height
5865 5865 5865 5865 5865 5864 5864 5863 5863 5862 5862 5861 5860 5859 5859 5858 5858 5857 5856 5856 5855 5855 5855 5854 5854 5853 5853 5853 5852 5852 5852 5852 5852 5852 5852 5852 5853 5853
5861 5861 5861 5861 5860 5860 5860 5859 5859 5859 5858 5857 5856 5855 5854 5853 5853 5852 5852 5851 5850 5850 5849 5849 5848 5848 5848 5847 5847 5846 5846 5846 5846 5846 5846 5846 5846 5846
5856 5856 5856 5855 5855 5855 5855 5854 5854 5853 5852 5852 5851 5850 5849 5848 5847 5846 5846 5845 5844 5844 5843 5843 5842 5842 5841 5841 5841 5840 5840 5839 5839 5839 5838 5838 5838 5839
5850 5850 5850 5850 5849 5849 5848 5848 5847 5847 5846 5845 5844 5844 5842 5842 5841 5840 5839 5838 5837 5837 5836 5836 5835 5835 5834 5834 5833 5833 5833 5832 5832 5831 5831 5831 5831 5831
5843 5843 5843 5842 5842 5841 5841 5840 5840 5839 5839 5838 5837 5836 5835 5834 5833 5832 5832 5831 5830 5829 5828 5828 5827 5827 5826 5826 5825 5825 5824 5824 5824 5823 5823 5823 5822 5822
5835 5835 5834 5834 5834 5833 5832 5832 5832 5831 5830 5829 5828 5828 5827 5825 5825 5824 5823 5822 5821 5820 5819 5818 5818 5817 5817 5816 5815 5815 5815 5814 5814 5814 5813 5813 5813 5813
5826 5826 5825 5825 5824 5824 5823 5822 5822 5822 5821 5820 5819 5818 5817 5815 5815 5814 5813 5812 5811 5810 5809 5809 5808 5807 5806 5805 5804 5804 5804 5803 5803 5803 5803 5803 5803 5803
5816 5815 5815 5815 5814 5813 5812 5811 5811 5811 5810 5809 5808 5808 5806 5805 5803 5802 5802 5801 5801 5800 5798 5798 5796 5795 5794 5793 5793 5792 5792 5791 5791 5791 5791 5791 5791 5791
5806 5805 5804 5804 5803 5802 5801 5800 5799 5799 5798 5797 5797 5796 5794 5793 5791 5790 5789 5788 5789 5787 5785 5786 5784 5783 5782 5780 5780 5779 5779 5779 5778 5778 5778 5778 5778 5778
5795 5794 5793 5792 5792 5790 5789 5788 5787 5786 5785 5784 5784 5783 5781 5780 5778 5778 5776 5775 5775 5774 5771 5772 5772 5770 5768 5767 5766 5765 5765 5764 5764 5764 5763 5764 5764 5764
5784 5782 5781 5780 5779 5778 5777 5776 5775 5774 5772 5771 5770 5769 5768 5766 5765 5763 5762 5761 5761 5761 5758 5756 5756 5755 5754 5753 5752 5750 5749 5749 5748 5748 5748 5748 5748 5748
5772 5771 5770 5768 5767 5766 5764 5764 5763 5761 5759 5758 5756 5755 5753 5752 5749 5748 5747 5745 5744 5745 5743 5740 5739 5737 5738 5739 5736 5734 5732 5731 5731 5730 5730 5730 5730 5731
5760 5759 5758 5756 5755 5753 5752 5750 5749 5748 5746 5744 5742 5740 5738 5736 5734 5732 5730 5728 5727 5726 5725 5722 5721 5719 5719 5721 5720 5718 5715 5713 5712 5712 5712 5712 5712 5713
5748 5747 5745 5743 5742 5740 5738 5736 5735 5733 5731 5729 5727 5725 5723 5721 5718 5715 5713 5710 5708 5707 5704 5702 5701 5699 5698 5699 5700 5699 5697 5694 5693 5693 5692 5693 5693 5693
5736 5734 5732 5730 5728 5726 5724 5722 5719 5717 5715 5713 5711 5708 5706 5704 5701 5698 5695 5692 5689 5686 5683 5680 5678 5677 5676 5676 5677 5677 5676 5675 5672 5671 5671 5671 5672 5673
5723 5720 5718 5715 5713 5711 5708 5705 5703 5700 5698 5695 5693 5690 5688 5685 5682 5678 5675 5672 5670 5667 5662 5658 5656 5654 5653 5653 5653 5653 5652 5652 5652 5649 5648 5649 5650 5651
5708 5706 5703 5700 5697 5694 5691 5688 5685 5682 5679 5677 5674 5672 5668 5665 5662 5658 5655 5651 5649 5646 5643 5638 5634 5632 5630 5630 5630 5630 5628 5628 5628 5626 5625 5626 5628 5629
5693 5690 5686 5683 5680 5677 5674 5671 5667 5664 5661 5658 5655 5652 5649 5645 5642 5638 5634 5631 5627 5624 5621 5618 5614 5611 5609 5608 5606 5605 5604 5604 5604 5603 5602 5603 5606 5608
5677 5673 5670 5667 5663 5660 5657 5653 5650 5646 5643 5640 5636 5633 5629 5626 5622 5619 5615 5611 5607 5604 5601 5597 5593 5590 5588 5588 5588 5583 5581 5581 5581 5581 5581 5581 5584 5587
5660 5657 5653 5650 5646 5643 5640 5636 5633 5629 5625 5622 5618 5615 5611 5608 5604 5601 5597 5593 5590 5586 5583 5579 5575 5571 5568 5567 5567 5567 5562 5560 5560 5561 5561 5562 5564 5566
5643 5640 5636 5633 5629 5626 5622 5619 5616 5612 5609 5606 5602 5598 5595 5591 5588 5585 5581 5578 5575 5572 5569 5565 5561 5556 5552 5550 5550 5551 5548 5544 5543 5543 5544 5545 5547 5548
5627 5623 5620 5616 5613 5610 5607 5603 5600 5597 5594 5591 5588 5584 5581 5578 5575 5572 5569 5566 5562 5559 5555 5552 5547 5543 5539 5537 5536 5535 5534 5532 5529 5529 5529 5531 5531 5534
5612 5609 5605 5602 5599 5596 5593 5590 5587 5584 5581 5578 5575 5572 5569 5566 5563 5561 5558 5555 5551 5548 5544 5541 5537 5533 5529 5526 5525 5523 5522 5520 5519 5518 5519 5519 5519 5521